White Plains, CT

1:23 PM EST on December 06, 2019 (GMT -0500)
Westchester County

Weather History for KHPN - August, 2019

Change the Weather History Date:

Thursday, August 1, 2019

  Actual Average Record
Temperature  
Mean Temperature 75 °F -  
Max Temperature 84 °F 80 °F 95 °F (1999)
Min Temperature 66 °F 63 °F 57 °F (1978)
Cooling Degree Days 10    
Growing Degree Days 25 (Base 50)    
Moisture  
Dew Point 64 °F    
Average Humidity 71    
Maximum Humidity 100    
Minimum Humidity 42    
Precipitation  
Precipitation 0.00 in - - ()
Sea Level Pressure  
Sea Level Pressure 30.07 in    
Wind  
Wind Speed 4 mph (NNW)    
Max Wind Speed 13 mph    
Max Gust Speed -    
Visibility 9 miles    
Events      
Averages and records for this station are not official NWS values.
T = Trace of Precipitation, MM = Missing Value Source: NWS Daily Summary

Daily Weather History Graph

Daily Weather History Graph

Search for Another Location

Airport or City:

Astronomy

Aug. 01, 2019 Rise Set
Actual Time 5:50 AM EDT 8:11 PM EDT
Civil Twilight 5:19 AM EDT 8:42 PM EDT
Nautical Twilight 4:41 AM EDT 9:20 PM EDT
Astronomical Twilight 3:58 AM EDT 10:02 PM EDT
Moon 6:11 AM EDT (8/1) 8:56 PM EDT (8/1)
Length of Visible Light 15h 22m
Length of Day
14h 20m
New Moon, 0% of the Moon is Illuminated
Aug 1
New Moon
Aug 7
First Quarter
Aug 15
Full
Aug 23
Last Quarter
Aug 30
New

Hourly Weather History & Observations

Time (EDT) Temp. Heat Index Dew Point Humidity Pressure Visibility Wind Dir Wind Speed Gust Speed Precip Events Conditions
1:56 AM 68.0 °F - 66.2 °F 94% 30.03 in 10.0 mi Calm Calm - N/A   Clear
2:41 AM 69.8 °F - 66.2 °F 88% 30.04 in 7.0 mi Calm Calm - N/A   Partly Cloudy
2:56 AM 69.8 °F - 66.2 °F 88% 30.03 in 6.0 mi Calm Calm - N/A   Scattered Clouds
3:56 AM 69.8 °F - 69.8 °F 100% 30.03 in 1.5 mi NW 8.1 mph - N/A   Overcast
4:19 AM 69.8 °F - 69.8 °F 100% 30.03 in 1.5 mi NW 8.1 mph - N/A   Overcast
4:54 AM 68.0 °F - 66.2 °F 94% 30.04 in 10.0 mi NNW 5.8 mph - N/A   Partly Cloudy
5:56 AM 66.2 °F - 64.4 °F 94% 30.04 in 10.0 mi North 5.8 mph - N/A   Clear
6:56 AM 69.8 °F - 64.4 °F 83% 30.05 in 10.0 mi North 11.5 mph - N/A   Clear
7:56 AM 71.6 °F - 62.6 °F 73% 30.07 in 10.0 mi North 12.7 mph - N/A   Clear
8:55 AM 73.4 °F - 62.6 °F 69% 30.08 in 10.0 mi NNW 11.5 mph - N/A   Partly Cloudy
9:55 AM 75.2 °F - 62.6 °F 65% 30.09 in 10.0 mi North 6.9 mph - N/A   Partly Cloudy
10:56 AM 78.8 °F - 62.6 °F 57% 30.09 in 10.0 mi WNW 3.5 mph - N/A   Partly Cloudy
10:57 AM 78.8 °F - 62.6 °F 57% 30.09 in 10.0 mi Variable 6.9 mph - N/A   Partly Cloudy
11:55 AM 80.6 °F 81.1 °F 59.0 °F 48% 30.10 in 10.0 mi ENE 6.9 mph - N/A   Partly Cloudy
12:56 PM 82.4 °F 82.0 °F 57.2 °F 42% 30.10 in 10.0 mi North 6.9 mph - N/A   Partly Cloudy
1:56 PM 82.4 °F 83.4 °F 62.6 °F 51% 30.09 in 10.0 mi NNW 6.9 mph - N/A   Scattered Clouds
2:55 PM 82.4 °F 83.4 °F 62.6 °F 51% 30.08 in 10.0 mi West 5.8 mph - N/A   Scattered Clouds
3:55 PM 84.2 °F 85.0 °F 62.6 °F 48% 30.09 in 10.0 mi NW 4.6 mph - N/A   Scattered Clouds
4:56 PM 84.2 °F 84.4 °F 60.8 °F 45% 30.08 in 10.0 mi NNW 4.6 mph - N/A   Scattered Clouds
5:56 PM 82.4 °F 82.9 °F 60.8 °F 48% 30.07 in 10.0 mi NW 3.5 mph - N/A   Partly Cloudy
6:56 PM 82.4 °F 83.4 °F 62.6 °F 51% 30.07 in 10.0 mi Calm Calm - N/A   Partly Cloudy
7:56 PM 78.8 °F - 64.4 °F 61% 30.08 in 10.0 mi Calm Calm - N/A   Partly Cloudy
8:56 PM 73.4 °F - 69.8 °F 88% 30.09 in 10.0 mi Calm Calm - N/A   Partly Cloudy
9:56 PM 73.4 °F - 69.8 °F 88% 30.11 in 10.0 mi Calm Calm - N/A   Partly Cloudy
10:56 PM 73.4 °F - 66.2 °F 78% 30.12 in 10.0 mi Calm Calm - N/A   Partly Cloudy
11:56 PM 73.4 °F - 66.2 °F 78% 30.11 in 10.0 mi Calm Calm - N/A   Scattered Clouds